Date,TemperatureHighF,TemperatureAvgF,TemperatureLowF,DewpointHighF,DewpointAvgF,DewpointLowF,HumidityHigh,HumidityAvg,HumidityLow,PressureMaxIn,PressureMinIn,WindSpeedMaxMPH,WindSpeedAvgMPH,GustSpeedMaxMPH,PrecipitationSumIn
2013-2-1,68,50,36,50,43,34,97,79,48,30.23,30.12,3,0,0,0.00
2013-2-2,65,50,40,48,44,38,100,80,51,30.29,30.19,3,0,0,0.00
2013-2-3,63,48,38,49,42,36,97,82,53,30.24,30.11,3,0,0,0.00
2013-2-4,64,50,38,50,44,36,97,82,57,30.17,30.04,2,0,0,0.00
2013-2-5,57,47,38,47,42,37,96,85,67,30.12,30.03,4,1,0,0.00
2013-2-6,61,47,38,46,40,36,97,78,42,30.18,30.09,4,1,0,0.00
2013-2-7,57,48,42,47,41,36,92,78,47,30.16,29.99,4,1,0,0.00
2013-2-8,57,46,35,41,35,31,95,70,38,30.00,29.90,8,3,0,0.00
2013-2-9,57,45,33,35,32,29,85,62,34,30.09,29.95,4,1,0,0.00
2013-2-10,61,45,32,41,36,30,95,73,43,30.14,29.99,5,1,0,0.00
2013-2-11,61,46,32,39,35,30,95,70,39,30.23,30.06,3,0,0,0.00
2013-2-12,63,48,35,41,37,32,94,70,41,30.37,30.23,2,0,0,0.00
2013-2-13,64,48,35,44,39,33,95,73,45,30.34,30.20,2,0,0,0.00
2013-2-14,67,50,36,47,42,34,96,74,44,30.26,30.15,3,0,0,0.00
2013-2-15,71,54,38,48,43,36,96,72,39,30.29,30.21,3,0,0,0.00
2013-2-16,69,53,40,45,42,38,93,70,37,30.25,30.02,3,1,0,0.00
2013-2-17,66,51,38,45,42,36,95,73,43,30.03,29.93,4,1,0,0.00
2013-2-18,59,47,37,46,40,35,96,78,60,30.00,29.91,6,2,0,0.00
2013-2-19,47,43,38,43,39,35,93,85,76,29.93,29.72,5,2,0,0.00
2013-2-20,60,44,32,40,34,30,96,71,35,30.03,29.81,9,2,0,0.00
2013-2-21,61,47,35,42,36,31,94,69,33,30.14,30.02,7,2,0,0.00
2013-2-22,63,48,34,41,38,31,94,69,41,30.24,30.14,3,1,0,0.00
2013-2-23,60,51,41,44,34,26,92,58,29,30.22,30.12,9,4,0,0.00
2013-2-24,63,51,41,35,30,27,67,46,25,30.23,30.15,8,4,0,0.00
2013-2-25,63,50,37,41,36,32,86,61,35,30.26,30.15,5,1,0,0.00
2013-2-26,66,51,37,36,32,24,84,52,21,30.19,30.09,10,3,0,0.00
2013-2-27,69,51,35,41,36,31,86,59,28,30.34,30.18,3,1,0,0.00
2013-2-28,71,56,43,45,41,39,89,60,33,30.42,30.34,5,1,0,0.00